Preview of NWS' New Version of Forecast
This preview is not operational and should not be used for support decisions.

Regional Weather Roundup (RWR)

Issued by National Weather Service (NWS)

                            
000
ASUS44 KMEG 221810
RWRTN 
TENNESSEE HOURLY STATE WEATHER ROUNDUP
NATIONAL WEATHER SERVICE MEMPHIS TN
100 PM CDT WED MAY 22 2019

TNZ002-004-019-021-049-052-054-088>092-221900-
WEST TENNESSEE
  
CITY           SKY/WX    TMP DP  RH WIND       PRES   REMARKS
MEMPHIS INTL   PTSUNNY   84  74  71 SW14G22   29.96S HX  91           
NWS MEMPHIS      N/A     85 N/A N/A MISG        N/A                   
JACKSON        FAIR      79  74  84 E3        30.00S                  
DYERSBURG      PTSUNNY   78  71  79 S5        29.99S                  
SOMERVILLE     MOSUNNY   86  72  62 S14       29.97S HX  92           
COVINGTON      CLOUDY    82  73  74 SW10      29.96F                  
UNION CITY     PTSUNNY   75  72  88 VRB7G13   29.98S                  
BOLIVAR        MOSUNNY   84  72  65 S8        29.98S                  
PARIS          PTSUNNY   73  70  88 SW13      30.01S                  
HUNTINGDON     MOSUNNY   73  72  94 S5        30.01                   
LEXINGTON      PTSUNNY   82  72  69 SW10      30.00S                  
SELMER         PTSUNNY   84  72  65 SW12      29.99F                  
SAVANNAH       PTSUNNY   88  70  55 S14       30.00R HX  92           
$$

TNZ008-025-027-028-033-062-065-066-221900-
NORTH MIDDLE TENNESSEE
  
CITY           SKY/WX    TMP DP  RH WIND       PRES   REMARKS
NASHVILLE      PTSUNNY   89  60  37 S20G26    30.03F                  
DICKSON        MOCLDY    84  70  61 S16       30.02S                  
PORTLAND       SUNNY     86  64  48 S16G23    30.02S                  
CLARKSVILLE    PTSUNNY   83  68  60 SW10      30.00F                  
LEBANON        PTCLDY    88  63  42 S13G22    30.02R                  
SMYRNA         FAIR      87  66  49 SW6G18    30.04S                  
MURFREESBORO   CLEAR     88  64  45 S13       30.02F                  
COOKEVILLE     SUNNY     88  59  37 SW9       30.07S                  
LIVINGSTON     CLEAR     84  55  37 SW9G20    30.08S                  
CROSSVILLE     FAIR      82  57  42 VRB7G21   30.14F                  
ROCKWOOD       CLEAR     82  63  51 SW8G18    30.13F                  
$$

TNZ061-075-076-078-094-096-097-221900-
SOUTH MIDDLE TENNESSEE
  
CITY           SKY/WX    TMP DP  RH WIND       PRES   REMARKS
LAWRENCEBURG   PTCLDY    84  66  54 S10G17    30.05S                  
LEWISBURG      CLEAR     86  66  51 S13       30.04S                  
FAYETTEVILLE   SUNNY     86  64  48 S13G20    30.06F                  
TULLAHOMA      SUNNY     84  61  45 S13G20    30.07S                  
WINCHESTER     SUNNY     88  55  33 S17       30.07F                  
MCMINNVILLE    SUNNY     86  61  42 VRB7G14   30.07S                  
COLUMBIA       SUNNY     84  66  54 S14G22    30.02S                  
SHELBYVILLE    MOSUNNY   86  66  51 S9G20     30.05S                  
$$

TNZ017-018-042-046-047-221900-
NORTHEAST TENNESSEE
  
CITY           SKY/WX    TMP DP  RH WIND       PRES   REMARKS
TRI CITIES     FAIR      86  62  44 SW9       30.15S                  
ELIZABETHTON   FAIR      84  63  48 VRB6      30.15F                  
GREENEVILLE    PTCLDY    84  63  48 VRB6      30.14F                  
$$

TNZ012-013-036-069-073-074-221900-
CENTRAL EAST TENNESSEE
  
CITY           SKY/WX    TMP DP  RH WIND       PRES   REMARKS
KNOXVILLE      FAIR      88  62  41 SW12G23   30.09F                  
OAK RIDGE      FAIR      88  63  43 SW8       30.12S                  
DOWNTOWN KNOXV MOSUNNY   88  66  48 SW7       30.10F HX  90           
GATLINBURG     MOSUNNY   88  66  48 NW8       30.10S HX  90           
MORRISTOWN     SUNNY     86  64  48 CALM      30.12F                  
JACKSBORO      SUNNY     86  64  48 S10G17    30.14S                  
$$

TNZ083-085-099-221900-
SOUTHEAST TENNESSEE
  
CITY           SKY/WX    TMP DP  RH WIND       PRES   REMARKS
CHATTANOOGA    FAIR      89  61  38 S16       30.09F                  
DAYTON         CLEAR     88  64  45 SW10      30.09F                  
$$

SKY/WX REPORTED AS FAIR MEANS FEW OR NO CLOUDS BELOW
12 THOUSAND FEET.